Volver al catálogo

OPS 4682 DEB

ActivoPO
NORAD 51093·DEBRIS·🇺🇸 United States

Lanzado Apr 3, 1965 desde Vandenberg Space Force Base

Loading…

Próximos Pases (próximas 24 horas)

TLE

ActualizadoSource: Space-Track

Época: Sep 14, 2026, 13:52 UTC

1 51093U 65027FV  26257.57833499  .00000015  00000-0  26766-4 0  9995
2 51093  90.2380   7.1559 0038246 195.4467 164.5489 12.96645889455681

Sigue OPS 4682 DEB en tiempo real con AllMySat

Download on the App Store